Terminal Aerodrome Forecast
Issued by NWS

Home | Current Version | Previous Version | Text Only | Print | Product List | Glossary On
Versions: 1 2 3 4 5 6 7 8 9 10 11 12 13 14 15 16 17 18 19 20 21 22 23 24 25 26 27 28 29 30 31 32 33 34 35 36 37 38 39 40 41 42 43 44 45 46 47 48 49 50
000
FTAK31 PANC 181743
TAFACV
TAF
PACV 181743Z 1818/1918 08008KT P6SM -RA FEW025 OVC050
      TEMPO 1818/1821 10015KT 6SM -RA SCT025 OVC035
     FM190000 06005KT P6SM -RA FEW020 OVC040=

USA.gov is the U.S. government's official web portal to all federal, state and local government web resources and services.